GW2194 Weather Reports


Display with metric or nautical units.
time (UTC)temp
F
wind
direction
speed
MPH
gust
MPH
rain 1hr
in
rain 24hr
in
rain mn
in
humidity
%
barometer
mb
20260502214731 49 26 9.0 14.0 0.00 0.00 0.00 40 1015.5
20260502214227 50 21 7.0 8.0 0.00 0.00 0.00 40 1015.4
20260502213724 50 334 2.0 4.0 0.00 0.00 0.00 39 1015.4
20260502213222 50 331 2.0 7.0 0.00 0.00 0.00 40 1015.1
20260502212721 50 352 5.0 7.0 0.00 0.00 0.00 39 1015.4
20260502212218 50 269 0.0 6.0 0.00 0.00 0.00 41 1015.1
20260502211714 50 243 4.0 9.0 0.00 0.00 0.00 41 1015.1
20260502211211 50 354 2.0 9.0 0.00 0.00 0.00 40 1015.2
20260502210708 50 14 7.0 9.0 0.00 0.00 0.00 38 1015.4
20260502210205 51 26 10.0 12.0 0.00 0.00 0.00 38 1015.3
20260502205703 50 224 3.0 7.0 0.00 0.00 0.00 42 1015.3
20260502205159 50 21 4.0 7.0 0.00 0.00 0.00 39 1015.4
20260502204655 50 316 4.0 10.0 0.00 0.00 0.00 38 1015.2
20260502204154 50 316 2.0 6.0 0.00 0.00 0.00 36 1015.6
20260502203650 50 301 5.0 9.0 0.00 0.00 0.00 38 1015.5
20260502203149 50 260 4.0 9.0 0.00 0.00 0.00 39 1015.4
20260502202642 50 57 3.0 4.0 0.00 0.00 0.00 39 1015.3
20260502202141 50 2 4.0 13.0 0.00 0.00 0.00 40 1015.5
20260502201637 50 258 4.0 6.0 0.00 0.00 0.00 37 1015.3
20260502201134 50 326 3.0 6.0 0.00 0.00 0.00 38 1015.3
20260502200630 50 4 7.0 10.0 0.00 0.00 0.00 37 1015.5
20260502200127 51 343 8.0 12.0 0.00 0.00 0.00 39 1015.5
20260502195626 51 10 2.0 5.0 0.00 0.00 0.00 40 1015.8
20260502195121 50 287 1.0 5.0 0.00 0.00 0.00 36 1015.6
20260502194618 51 352 3.0 5.0 0.00 0.00 0.00 39 1015.6
20260502194114 50 3 3.0 3.0 0.00 0.00 0.00 41 1015.8
20260502193611 50 217 3.0 6.0 0.00 0.00 0.00 40 1015.4
20260502193108 51 201 9.0 10.0 0.00 0.00 0.00 41 1015.7
20260502192604 50 339 5.0 5.0 0.00 0.00 0.00 40 1015.6
20260502192102 50 12 6.0 9.0 0.00 0.00 0.00 39 1016.0
20260502191558 50 319 3.0 7.0 0.00 0.00 0.00 43 1016.1
20260502191055 50 36 5.0 8.0 0.00 0.00 0.00 38 1016.1
20260502190553 50 236 4.0 8.0 0.00 0.00 0.00 40 1016.1
20260502190050 49 49 0.0 7.0 0.00 0.00 0.00 41 1016.2
20260502185544 50 345 4.0 9.0 0.00 0.00 0.00 38 1016.3
20260502185042 50 17 4.0 5.0 0.00 0.00 0.00 41 1016.3
20260502184538 50 136 2.0 5.0 0.00 0.00 0.00 38 1016.4
20260502184034 51 5 5.0 11.0 0.00 0.00 0.00 37 1016.2
20260502183530 52 51 3.0 5.0 0.00 0.00 0.00 43 1016.3
20260502183026 50 247 2.0 4.0 0.00 0.00 0.00 41 1016.4
20260502182521 50 214 5.0 8.0 0.00 0.00 0.00 38 1016.6
20260502182018 51 6 5.0 9.0 0.00 0.00 0.00 39 1016.4
20260502181516 51 0 3.0 9.0 0.00 0.00 0.00 40 1016.4
20260502181015 49 0 4.0 7.0 0.00 0.00 0.00 45 1016.8
20260502180511 49 275 2.0 6.0 0.00 0.00 0.00 45 1016.8
20260502170424 46 15 1.0 7.0 0.00 0.00 0.00 49 1016.9
20260502163907 46 21 5.0 9.0 0.00 0.00 0.00 52 1017.2
20260502163404 47 11 6.0 10.0 0.00 0.00 0.00 48 1017.2
20260502162902 47 345 5.0 6.0 0.00 0.00 0.00 51 1017.2
20260502162358 46 26 5.0 7.0 0.00 0.00 0.00 51 1017.3
20260502161855 46 2 4.0 7.0 0.00 0.00 0.00 51 1017.2
20260502161351 46 14 5.0 13.0 0.00 0.00 0.00 50 1017.3
20260502160849 47 10 3.0 6.0 0.00 0.00 0.00 50 1017.3
20260502160348 47 329 3.0 7.0 0.00 0.00 0.00 49 1017.2
20260502152328 45 354 5.0 7.0 0.00 0.00 0.00 56 1017.4
20260502151826 45 359 9.0 11.0 0.00 0.00 0.00 55 1017.5
20260502151322 45 191 3.0 9.0 0.00 0.00 0.00 56 1017.4
20260502150820 46 16 6.0 10.0 0.00 0.00 0.00 54 1017.5
20260502150316 46 352 7.0 8.0 0.00 0.00 0.00 54 1017.5
20260502130705 43 2 3.0 6.0 0.00 0.00 0.00 68 1017.2
20260502130202 42 83 2.0 5.0 0.00 0.00 0.00 70 1017.3
20260502123648 43 54 3.0 4.0 0.00 0.00 0.00 74 1017.9
20260502123145 40 356 4.0 4.0 0.00 0.00 0.00 76 1017.7
20260502122641 40 22 2.0 3.0 0.00 0.00 0.00 80 1017.4
20260502122138 40 83 3.0 5.0 0.00 0.00 0.00 78 1017.6
20260502121636 40 62 2.0 3.0 0.00 0.00 0.00 80 1017.4
20260502121133 40 72 3.0 5.0 0.00 0.00 0.00 80 1017.5
20260502120630 40 15 1.0 2.0 0.00 0.00 0.00 80 1017.6
20260502120127 40 50 1.0 2.0 0.00 0.00 0.00 82 1017.8
20260502115624 40 80 1.0 1.0 0.00 0.00 0.00 81 1017.8
20260502115120 39 44 0.0 2.0 0.00 0.00 0.00 82 1017.8
20260502114616 40 41 0.0 1.0 0.00 0.00 0.00 82 1017.9
20260502114114 40 72 0.0 1.0 0.00 0.00 0.00 83 1017.6
20260502113611 40 19 0.0 1.0 0.00 0.00 0.00 85 1017.9
20260502113110 39 235 0.0 0.0 0.00 0.00 0.00 84 1017.7
20260502112607 39 240 0.0 2.0 0.00 0.00 0.00 86 1017.4
20260502112104 39 252 1.0 2.0 0.00 0.00 0.00 90 1017.7
20260502111602 39 75 1.0 2.0 0.00 0.00 0.00 92 1017.6
20260502111059 39 99 0.0 4.0 0.00 0.00 0.00 93 1017.8
20260502110556 38 55 0.0 1.0 0.00 0.00 0.00 93 1018.2
20260502110054 38 35 0.0 2.0 0.00 0.00 0.00 93 1017.8
20260502105551 38 246 0.0 2.0 0.00 0.00 0.00 93 1018.2
20260502105048 38 123 0.0 2.0 0.00 0.00 0.00 94 1017.5
20260502104545 38 59 0.0 2.0 0.00 0.00 0.00 94 1017.6
20260502104043 38 131 0.0 1.0 0.00 0.00 0.00 94 1017.6
20260502103540 38 290 0.0 2.0 0.00 0.00 0.00 94 1017.7
20260502103038 38 25 0.0 2.0 0.00 0.00 0.00 94 1017.4
20260502102534 38 346 2.0 2.0 0.00 0.00 0.00 94 1017.6
20260502102032 38 326 0.0 2.0 0.00 0.00 0.00 94 1017.5
20260502101529 38 89 1.0 2.0 0.00 0.00 0.00 94 1017.8
20260502101028 38 176 1.0 2.0 0.00 0.00 0.00 94 1017.6
20260502100526 38 166 1.0 2.0 0.00 0.00 0.00 94 1017.4
20260502091500 38 108 2.0 3.0 0.00 0.00 0.00 92 1017.6
20260502090958 38 343 3.0 3.0 0.00 0.00 0.00 92 1017.8
20260502090454 38 269 0.0 1.0 0.00 0.00 0.00 92 1017.7
20260502071349 42 28 2.0 2.0 0.00 0.00 0.00 80 1017.4
20260502070847 42 341 0.0 3.0 0.00 0.00 0.00 79 1017.4
20260502070344 42 11 2.0 2.0 0.00 0.00 0.00 80 1017.4
20260502065843 42 317 0.0 2.0 0.00 0.00 0.00 80 1017.3
20260502065341 42 283 2.0 3.0 0.00 0.00 0.00 81 1017.5
20260502064838 42 30 1.0 2.0 0.00 0.00 0.00 82 1017.4
20260502064336 41 328 0.0 2.0 0.00 0.00 0.00 81 1017.5
20260502063833 41 91 2.0 2.0 0.00 0.00 0.00 81 1017.5
20260502063331 41 56 2.0 2.0 0.00 0.00 0.00 82 1017.5
20260502062828 41 56 2.0 2.0 0.00 0.00 0.00 81 1017.4
20260502062326 41 53 0.0 1.0 0.00 0.00 0.00 81 1017.5
20260502061824 41 304 0.0 0.0 0.00 0.00 0.00 81 1017.5
20260502061322 41 23 3.0 4.0 0.00 0.00 0.00 81 1017.5
20260502060817 41 30 1.0 2.0 0.00 0.00 0.00 80 1017.7
20260502060312 41 293 0.0 0.0 0.00 0.00 0.00 79 1017.5
20260502055811 42 253 0.0 1.0 0.00 0.00 0.00 77 1017.6
20260502055308 42 77 3.0 3.0 0.00 0.00 0.00 77 1017.5
20260502054808 42 358 0.0 4.0 0.00 0.00 0.00 76 1017.6
20260502054305 43 314 0.0 5.0 0.00 0.00 0.00 75 1017.8
20260502053802 43 96 1.0 3.0 0.00 0.00 0.00 75 1017.9
20260502053259 43 20 6.0 9.0 0.00 0.00 0.00 75 1017.8
20260502052757 43 43 7.0 9.0 0.00 0.00 0.00 75 1017.8
20260502052255 43 274 0.0 5.0 0.00 0.00 0.00 75 1017.9
20260502051752 43 47 3.0 4.0 0.00 0.00 0.00 75 1017.7
20260502051251 43 3 2.0 4.0 0.00 0.00 0.00 74 1017.9
20260502050746 43 16 3.0 5.0 0.00 0.00 0.00 75 1017.8
20260502050242 43 3 1.0 2.0 0.00 0.00 0.00 75 1017.8
20260502045740 44 331 3.0 7.0 0.00 0.00 0.00 75 1017.8
20260502045237 44 299 0.0 5.0 0.00 0.00 0.00 73 1017.8
20260502044734 44 295 3.0 5.0 0.00 0.00 0.00 73 1017.8
20260502044230 44 35 6.0 6.0 0.00 0.00 0.00 73 1017.6
20260502043727 44 22 7.0 10.0 0.00 0.00 0.00 73 1017.6
20260502043225 44 14 3.0 8.0 0.00 0.00 0.00 73 1017.7
20260502042724 44 1 3.0 6.0 0.00 0.00 0.00 75 1017.8
20260502042222 44 13 5.0 11.0 0.00 0.00 0.00 75 1017.4
20260502041719 45 56 6.0 11.0 0.00 0.00 0.00 76 1017.5
20260502041216 45 358 5.0 10.0 0.00 0.00 0.00 77 1017.5
20260502040713 46 26 3.0 6.0 0.00 0.00 0.00 77 1017.8
20260502040210 46 7 5.0 9.0 0.00 0.00 0.00 77 1017.1
20260502035706 46 352 5.0 8.0 0.00 0.04 0.04 78 1017.4
20260502035203 46 342 0.0 5.0 0.00 0.04 0.04 79 1017.6
20260502034701 46 6 3.0 7.0 0.00 0.04 0.04 77 1017.2
20260502034159 46 20 5.0 7.0 0.00 0.04 0.04 78 1017.4
20260502033656 46 9 4.0 5.0 0.00 0.04 0.04 78 1017.1
20260502033154 46 21 5.0 7.0 0.00 0.04 0.04 77 1017.3
20260502032650 46 11 6.0 9.0 0.00 0.04 0.04 77 1017.4
20260502032146 46 11 4.0 5.0 0.00 0.04 0.04 78 1017.3
20260502031644 47 41 5.0 9.0 0.00 0.04 0.04 79 1017.4
20260502031142 47 3 4.0 6.0 0.00 0.04 0.04 80 1017.5
20260502030641 46 42 4.0 9.0 0.00 0.04 0.04 83 1017.4
20260502030138 46 33 2.0 3.0 0.00 0.04 0.04 85 1017.0
20260502025635 46 32 0.0 2.0 0.00 0.04 0.04 85 1016.8
20260502025133 46 359 2.0 3.0 0.00 0.04 0.04 86 1017.0
20260502024631 46 43 1.0 2.0 0.02 0.04 0.04 85 1016.6
20260502024129 46 101 1.0 1.0 0.00 0.03 0.03 84 1016.8
20260502023627 46 194 0.0 1.0 0.02 0.03 0.03 85 1016.8
20260502023123 46 39 0.0 2.0 0.02 0.03 0.03 85 1016.7
20260502022620 47 108 2.0 3.0 0.00 0.03 0.03 84 1016.7
20260502022118 47 101 2.0 2.0 0.00 0.03 0.03 84 1016.8
20260502021615 47 97 2.0 4.0 0.00 0.03 0.03 82 1016.9
20260502021112 47 101 1.0 2.0 0.00 0.03 0.03 83 1016.7
20260502020610 46 116 1.0 3.0 0.00 0.03 0.03 84 1016.7
20260502020106 46 62 0.0 1.0 0.00 0.03 0.03 84 1017.0
20260502015604 46 121 1.0 2.0 0.00 0.03 0.03 85 1017.2
20260502015100 47 58 2.0 2.0 0.00 0.03 0.03 84 1017.1
20260502014557 47 77 0.0 2.0 0.02 0.03 0.03 83 1016.7
20260502014054 47 100 0.0 2.0 0.02 0.03 0.03 82 1016.7
20260502013549 47 101 1.0 1.0 0.00 0.02 0.02 82 1016.6
20260502013046 47 93 2.0 2.0 0.00 0.02 0.02 81 1016.6
20260502012543 47 326 0.0 1.0 0.00 0.02 0.02 82 1016.7
20260502012041 47 214 4.0 6.0 0.02 0.02 0.02 82 1016.6
20260502011538 47 86 3.0 3.0 0.02 0.02 0.02 84 1016.5
20260502011034 46 117 1.0 3.0 0.00 0.02 0.02 84 1016.7
20260502010532 47 105 2.0 3.0 0.00 0.02 0.02 83 1016.7
20260502010028 47 109 2.0 3.0 0.02 0.02 0.02 83 1016.4
20260502005526 47 88 2.0 3.0 0.02 0.02 0.02 82 1016.1
20260502005023 47 99 0.0 3.0 0.00 0.02 0.02 80 1016.2
20260502004518 47 58 1.0 1.0 0.02 0.02 0.02 79 1016.2
20260502004016 48 88 2.0 3.0 0.00 0.01 0.01 76 1016.0
20260502003514 48 96 2.0 2.0 0.00 0.01 0.01 72 1016.0
20260502003010 48 40 4.0 5.0 0.00 0.01 0.01 71 1015.7
20260502002507 48 356 5.0 8.0 0.02 0.01 0.01 68 1015.5
20260502002004 49 358 5.0 7.0 0.02 0.01 0.01 68 1015.5
20260502001501 50 159 0.0 5.0 0.02 0.01 0.01 72 1015.3
20260502000959 50 0 5.0 6.0 0.00 0.00 0.00 69 1015.5
20260502000457 51 345 4.0 11.0 0.00 0.00 0.00 66 1015.2
20260501235953 51 2 2.0 9.0 0.00 0.00 0.00 67 1014.8
20260501235448 51 11 3.0 6.0 0.00 0.00 0.00 66 1014.8
20260501234944 51 24 4.0 7.0 0.00 0.00 0.00 66 1014.9
20260501234441 51 41 5.0 7.0 0.00 0.00 0.00 67 1014.8
20260501233940 51 306 2.0 5.0 0.00 0.00 0.00 66 1014.7
20260501233437 51 62 4.0 7.0 0.00 0.00 0.00 66 1014.8
20260501232933 51 10 5.0 9.0 0.00 0.00 0.00 66 1014.8
20260501232430 52 357 5.0 8.0 0.00 0.00 0.00 65 1014.6
20260501231927 52 289 6.0 11.0 0.00 0.00 0.00 64 1014.8
20260501231426 52 28 7.0 9.0 0.00 0.00 0.00 63 1014.6
20260501230923 53 21 4.0 12.0 0.00 0.00 0.00 62 1014.4
20260501230422 53 28 6.0 13.0 0.00 0.00 0.00 60 1014.5
20260501225919 53 22 7.0 8.0 0.00 0.00 0.00 60 1014.7
20260501225417 54 31 5.0 8.0 0.00 0.00 0.00 60 1014.2
20260501224912 54 82 1.0 6.0 0.00 0.00 0.00 58 1014.1
20260501224410 54 355 5.0 6.0 0.00 0.00 0.00 59 1013.9
20260501223906 54 37 11.0 15.0 0.00 0.00 0.00 57 1014.0
20260501223402 55 18 7.0 15.0 0.00 0.00 0.00 55 1013.9
20260501222858 55 47 9.0 10.0 0.00 0.00 0.00 54 1014.2
20260501222356 55 354 10.0 20.0 0.00 0.00 0.00 51 1013.7
20260501221852 56 9 12.0 13.0 0.00 0.00 0.00 48 1013.6
20260501221349 57 345 11.0 13.0 0.00 0.00 0.00 44 1013.5
20260501220848 59 350 5.0 5.0 0.00 0.00 0.00 41 1013.2
20260501220345 59 75 0.0 11.0 0.00 0.00 0.00 38 1013.1
20260501215841 60 345 2.0 10.0 0.00 0.00 0.00 36 1013.1
20260501215337 60 356 6.0 10.0 0.00 0.00 0.00 35 1012.7
20260501214833 60 21 6.0 9.0 0.00 0.00 0.00 36 1013.0